Location: Arboyeti
(42.1122°N, 44.6017°E)
Time: 05:45:47
(UTC+00:00)

Resurs 1-4 Rocket - Pass Details

Date: 19 April 2021
Orbit: 799 x 815 km, 98.6° (Epoch: 09 May)

Event Time Altitude Azimuth Distance (km) Brightness Sun altitude
Rises 21:57:58 0° 21° (NNE) 3,321 6.3 -34.8°
Reaches altitude 10° 22:00:29 10° 30° (NNE) 2,384 5.3 -34.7°
Enters shadow 22:03:46 31° 60° (ENE) 1,383 3.6 -34.5°
